Preview of NWS' New Version of Forecast
This preview is not operational and should not be used for support decisions.

Regional Weather Roundup (RWR)

Issued by National Weather Service (NWS)

                            
000
ASUS43 KBIS 181510
RWRND 

NORTH DAKOTA REGIONAL WEATHER ROUNDUP
NATIONAL WEATHER SERVICE BISMARCK ND
1000 AM CDT MON MAR 18 2019

NOTE: "FAIR" INDICATES FEW OR NO CLOUDS BELOW 12,000 FEET WITH NO
SIGNIFICANT WEATHER AND/OR OBSTRUCTIONS TO VISIBILITY.


NDZ001>003-009>011-017-181600-
NORTHWEST NORTH DAKOTA
  
CITY           SKY/WX    TMP DP  RH WIND       PRES   REMARKS
WILLISTON      FAIR      24  20  84 SW8       30.20F WCI  15          
MINOT          CLOUDY    29  18  63 SW15      30.16F WCI  18          
MINOT AFB      CLOUDY    27  20  73 W16       30.14F WCI  15          
$$
 
NDZ018>021-031>035-040>046-181600-
SOUTHWEST NORTH DAKOTA
  
CITY           SKY/WX    TMP DP  RH WIND       PRES   REMARKS
BISMARCK       FAIR      22  11  62 SW5       30.30F WCI  16          
DICKINSON      FAIR      21  14  74 W7        30.22S WCI  12          
GARRISON         N/A     22  16  78 SW12      30.21F WCI  10          
HETTINGER ARPT FAIR      11   9  92 W5        30.27F WCI   3          
$$
 
NDZ004>008-012>016-024-026-027-054-181600-
NORTHEAST NORTH DAKOTA
  
CITY           SKY/WX    TMP DP  RH WIND       PRES   REMARKS
GRAND FORKS    PTSUNNY   16  13  88 S8        30.26F WCI   5          
GRND FRKS AFB  PTSUNNY   24  18  76 SW14      30.25F WCI  12          
DEVILS LAKE    FAIR      20  16  84 SW12      30.22F WCI   8          
$$
 
NDZ022-023-025-028>030-036>039-047>053-181600-
SOUTHEAST NORTH DAKOTA
  
CITY           SKY/WX    TMP DP  RH WIND       PRES   REMARKS
FARGO          FAIR      18  16  92 S7        30.33S FOG     WCI   9  
JAMESTOWN      CLOUDY    24  16  71 W9        30.28F WCI  14          
$$